Keahole Point, HI

6:51 PM HST on April 22, 2018 (GMT -1000)
Kona International At Keahole

Weather History for PHKO - May, 2011

Change the Weather History Date:

Sunday, May 8, 2011

  Actual Average Record
Temperature  
Mean Temperature 77 °F -  
Max Temperature 82 °F 80 °F 90 °F (1985)
Min Temperature 72 °F 70 °F 67 °F (1992)
Cooling Degree Days 12    
Growing Degree Days 27 (Base 50)    
Moisture  
Dew Point 71 °F    
Average Humidity 79    
Maximum Humidity 91    
Minimum Humidity 69    
Precipitation  
Precipitation 0.00 in - - ()
Sea Level Pressure  
Sea Level Pressure 29.99 in    
Wind  
Wind Speed 6 mph (SSW)    
Max Wind Speed 12 mph    
Max Gust Speed -    
Visibility 10 miles    
Events      
Averages and records for this station are not official NWS values.
T = Trace of Precipitation, MM = Missing Value Source: NWS Daily Summary

Daily Weather History Graph

Daily Weather History Graph

Search for Another Location

Airport or City:

Astronomy

May. 08, 2011 Rise Set
Actual Time 5:51 AM HST 6:50 PM HST
Civil Twilight 5:28 AM HST 7:13 PM HST
Nautical Twilight 5:00 AM HST 7:40 PM HST
Astronomical Twilight 4:32 AM HST 8:09 PM HST
Moon 10:27 AM HST (5/8) 11:48 PM HST (5/8)
Length of Visible Light 13h 45m
Length of Day
12h 58m
Waxing Crescent, 30% of the Moon is Illuminated
May 8
Waxing Crescent
May 10
First Quarter
May 17
Full
May 24
Last Quarter
Jun 1
New

Hourly Weather History & Observations

Time (HST) Temp. Heat Index Dew Point Humidity Pressure Visibility Wind Dir Wind Speed Gust Speed Precip Events Conditions
12:53 AM 73.9 °F - 69.1 °F 85% 29.99 in 10.0 mi East 4.6 mph - N/A   Partly Cloudy
1:53 AM 73.0 °F - 69.1 °F 87% 29.97 in 10.0 mi NNE 3.5 mph - N/A   Scattered Clouds
2:53 AM 73.0 °F - 68.0 °F 84% 29.96 in 10.0 mi ENE 4.6 mph - N/A   Partly Cloudy
3:53 AM 72.0 °F - 69.1 °F 91% 29.95 in 10.0 mi East 3.5 mph - N/A   Clear
4:53 AM 73.0 °F - 69.1 °F 87% 29.97 in 10.0 mi ESE 9.2 mph - N/A   Partly Cloudy
5:53 AM 73.0 °F - 69.1 °F 87% 29.98 in 10.0 mi SE 4.6 mph - N/A   Partly Cloudy
6:53 AM 75.0 °F - 68.0 °F 79% 30.00 in 10.0 mi East 3.5 mph - N/A   Mostly Cloudy
7:53 AM 77.0 °F - 69.1 °F 76% 30.01 in 10.0 mi West 3.5 mph - N/A   Clear
8:53 AM 78.1 °F - 72.0 °F 81% 30.03 in 10.0 mi WSW 5.8 mph - N/A   Mostly Cloudy
9:53 AM 79.0 °F - 71.1 °F 77% 30.03 in 10.0 mi WSW 3.5 mph - N/A   Clear
10:53 AM 80.1 °F 83.8 °F 72.0 °F 76% 30.01 in 10.0 mi West 8.1 mph - N/A   Clear
11:53 AM 82.0 °F 86.3 °F 71.1 °F 69% 29.99 in 10.0 mi West 9.2 mph - N/A   Clear
12:53 PM 81.0 °F 85.2 °F 72.0 °F 74% 29.97 in 10.0 mi West 9.2 mph - N/A   Clear
1:53 PM 81.0 °F 85.2 °F 72.0 °F 74% 29.97 in 10.0 mi SW 8.1 mph - N/A   Clear
2:53 PM 82.0 °F 87.4 °F 73.0 °F 74% 29.97 in 10.0 mi SSW 9.2 mph - N/A   Clear
3:53 PM 81.0 °F 85.2 °F 72.0 °F 74% 29.96 in 10.0 mi SSW 9.2 mph - N/A   Clear
4:53 PM 80.1 °F 83.6 °F 71.1 °F 74% 29.95 in 10.0 mi South 10.4 mph - N/A   Scattered Clouds
5:53 PM 79.0 °F - 70.0 °F 74% 29.95 in 10.0 mi South 10.4 mph - N/A   Clear
6:53 PM 79.0 °F - 71.1 °F 77% 29.97 in 10.0 mi South 10.4 mph - N/A   Clear
7:53 PM 78.1 °F - 72.0 °F 81% 30.00 in 10.0 mi South 11.5 mph - 0.00 in   Clear
8:44 PM 78.8 °F - 71.6 °F 78% 30.01 in 10.0 mi SW 9.2 mph - N/A   Overcast
8:53 PM 78.1 °F - 72.0 °F 81% 30.01 in 10.0 mi SW 9.2 mph - N/A   Overcast
9:53 PM 77.0 °F - 72.0 °F 84% 30.01 in 10.0 mi West 9.2 mph - N/A   Overcast
10:53 PM 77.0 °F - 71.1 °F 82% 30.02 in 10.0 mi Calm Calm - N/A   Overcast
11:53 PM 77.0 °F - 70.0 °F 79% 30.00 in 10.0 mi NW 8.1 mph - 0.00 in   Overcast